| time (UTC) | temp F | wind direction | speed MPH | gust MPH | rain 1hr in | rain 24hr in | rain mn in | humidity % | barometer mb |
| 20260904234016 | 96 | 135 | 5.0 | 11.0 | 0.00 | 0.01 | 0.00 | 44 | 1011.0 |
| 20260904233036 | 96 | 113 | 8.0 | 12.0 | 0.00 | 0.01 | 0.00 | 44 | 1011.0 |
| 20260904232016 | 97 | 135 | 3.0 | 10.0 | 0.00 | 0.01 | 0.00 | 45 | 1010.9 |
| 20260904231016 | 97 | 135 | 7.0 | 11.0 | 0.00 | 0.01 | 0.00 | 44 | 1011.0 |
| 20260904230016 | 97 | 113 | 7.0 | 12.0 | 0.00 | 0.01 | 0.00 | 44 | 1011.0 |
| 20260904225016 | 97 | 135 | 8.0 | 13.0 | 0.00 | 0.01 | 0.00 | 44 | 1011.1 |
| 20260904224016 | 97 | 90 | 3.0 | 9.0 | 0.00 | 0.01 | 0.00 | 45 | 1011.1 |
| 20260904223016 | 98 | 113 | 11.0 | 19.0 | 0.00 | 0.01 | 0.00 | 44 | 1011.3 |
| 20260904222016 | 98 | 135 | 4.0 | 11.0 | 0.00 | 0.01 | 0.00 | 42 | 1011.1 |
| 20260904221016 | 98 | 135 | 4.0 | 11.0 | 0.00 | 0.01 | 0.00 | 41 | 1011.2 |
| 20260904220016 | 98 | 113 | 7.0 | 12.0 | 0.00 | 0.01 | 0.00 | 41 | 1011.2 |
| 20260904215016 | 99 | 113 | 10.0 | 14.0 | 0.00 | 0.01 | 0.00 | 41 | 1011.4 |
| 20260904214016 | 99 | 113 | 4.0 | 11.0 | 0.00 | 0.01 | 0.00 | 41 | 1011.4 |
| 20260904213056 | 98 | 113 | 7.0 | 12.0 | 0.00 | 0.01 | 0.00 | 41 | 1011.5 |
| 20260904212016 | 98 | 90 | 9.0 | 15.0 | 0.00 | 0.01 | 0.00 | 42 | 1011.6 |
| 20260904211036 | 98 | 135 | 9.0 | 13.0 | 0.00 | 0.01 | 0.00 | 42 | 1011.8 |
| 20260904210016 | 99 | 158 | 4.0 | 15.0 | 0.00 | 0.01 | 0.00 | 42 | 1012.0 |
| 20260904205036 | 99 | 135 | 2.0 | 12.0 | 0.00 | 0.01 | 0.00 | 42 | 1012.1 |
| 20260904204016 | 99 | 90 | 1.0 | 2.0 | 0.00 | 0.01 | 0.00 | 43 | 1012.1 |
| 20260904203510 | 99 | 113 | 3.0 | 10.0 | 0.00 | 0.01 | 0.00 | 44 | 1012.3 |
| 20260904202516 | 99 | 90 | 1.0 | 6.0 | 0.00 | 0.01 | 0.00 | 44 | 1012.3 |
| 20260904201516 | 98 | 113 | 2.0 | 10.0 | 0.00 | 0.01 | 0.00 | 46 | 1012.5 |
| 20260904200516 | 98 | 135 | 5.0 | 12.0 | 0.00 | 0.01 | 0.00 | 45 | 1012.8 |
| 20260904195516 | 98 | 113 | 6.0 | 14.0 | 0.00 | 0.01 | 0.00 | 45 | 1013.0 |
| 20260904194516 | 98 | 135 | 3.0 | 10.0 | 0.00 | 0.01 | 0.00 | 46 | 1013.1 |
| 20260904193536 | 97 | 113 | 9.0 | 16.0 | 0.00 | 0.01 | 0.00 | 47 | 1013.2 |
| 20260904192516 | 97 | 113 | 7.0 | 15.0 | 0.00 | 0.01 | 0.00 | 48 | 1013.4 |
| 20260904191516 | 97 | 113 | 4.0 | 13.0 | 0.00 | 0.01 | 0.00 | 48 | 1013.3 |
| 20260904190516 | 96 | 135 | 6.0 | 12.0 | 0.00 | 0.01 | 0.00 | 47 | 1013.4 |
| 20260904185516 | 95 | 113 | 9.0 | 14.0 | 0.00 | 0.01 | 0.00 | 49 | 1013.6 |
| 20260904184516 | 94 | 135 | 8.0 | 15.0 | 0.00 | 0.01 | 0.00 | 50 | 1013.7 |
| 20260904183516 | 94 | 135 | 9.0 | 14.0 | 0.00 | 0.01 | 0.00 | 49 | 1013.8 |
| 20260904182516 | 95 | 113 | 8.0 | 14.0 | 0.00 | 0.01 | 0.00 | 48 | 1014.0 |
| 20260904181516 | 96 | 158 | 2.0 | 9.0 | 0.00 | 0.01 | 0.00 | 49 | 1014.0 |
| 20260904180516 | 96 | 135 | 6.0 | 14.0 | 0.00 | 0.01 | 0.00 | 48 | 1014.2 |
| 20260904175536 | 95 | 135 | 1.0 | 5.0 | 0.00 | 0.01 | 0.00 | 49 | 1014.3 |
| 20260904174536 | 95 | 158 | 6.0 | 13.0 | 0.00 | 0.01 | 0.00 | 48 | 1014.4 |
| 20260904173516 | 95 | 135 | 5.0 | 12.0 | 0.00 | 0.01 | 0.00 | 49 | 1014.6 |
| 20260904172516 | 94 | 180 | 2.0 | 9.0 | 0.00 | 0.01 | 0.00 | 52 | 1014.6 |
| 20260904171516 | 94 | 158 | 4.0 | 17.0 | 0.00 | 0.01 | 0.00 | 55 | 1014.8 |
| 20260904170536 | 93 | 158 | 2.0 | 11.0 | 0.00 | 0.01 | 0.00 | 56 | 1015.0 |
| 20260904165556 | 92 | 180 | 1.0 | 10.0 | 0.00 | 0.01 | 0.00 | 56 | 1014.8 |
| 20260904164516 | 91 | 203 | 1.0 | 6.0 | 0.00 | 0.01 | 0.00 | 56 | 1014.9 |
| 20260904163536 | 91 | 158 | 3.0 | 10.0 | 0.00 | 0.01 | 0.00 | 61 | 1015.0 |
| 20260904162536 | 90 | 158 | 1.0 | 6.0 | 0.00 | 0.01 | 0.00 | 63 | 1015.0 |
| 20260904161516 | 89 | 158 | 3.0 | 12.0 | 0.00 | 0.01 | 0.00 | 62 | 1015.1 |
| 20260904160516 | 88 | 158 | 3.0 | 9.0 | 0.00 | 0.01 | 0.00 | 67 | 1014.9 |
| 20260904155516 | 88 | 158 | 1.0 | 10.0 | 0.00 | 0.01 | 0.00 | 67 | 1014.9 |
| 20260904154556 | 87 | 158 | 2.0 | 10.0 | 0.00 | 0.01 | 0.00 | 70 | 1014.8 |
| 20260904153516 | 86 | 180 | 1.0 | 9.0 | 0.00 | 0.01 | 0.00 | 72 | 1014.9 |
| 20260904152516 | 85 | 158 | 2.0 | 10.0 | 0.00 | 0.01 | 0.00 | 76 | 1014.7 |
| 20260904151516 | 84 | 158 | 3.0 | 16.0 | 0.00 | 0.01 | 0.00 | 78 | 1014.7 |
| 20260904150536 | 82 | 158 | 1.0 | 10.0 | 0.00 | 0.01 | 0.00 | 86 | 1014.6 |
| 20260904145536 | 81 | 158 | 4.0 | 10.0 | 0.00 | 0.01 | 0.00 | 90 | 1014.7 |
| 20260904144516 | 80 | 135 | 4.0 | 8.0 | 0.00 | 0.01 | 0.00 | 91 | 1014.7 |
| 20260904143516 | 80 | 135 | 5.0 | 9.0 | 0.00 | 0.01 | 0.00 | 92 | 1014.8 |
| 20260904142536 | 79 | 113 | 5.0 | 10.0 | 0.00 | 0.01 | 0.00 | 92 | 1014.8 |
| 20260904141516 | 79 | 113 | 5.0 | 9.0 | 0.00 | 0.01 | 0.00 | 93 | 1014.6 |
| 20260904140516 | 79 | 113 | 3.0 | 7.0 | 0.00 | 0.01 | 0.00 | 93 | 1014.7 |
| 20260904135516 | 79 | 113 | 4.0 | 7.0 | 0.00 | 0.01 | 0.00 | 93 | 1014.5 |
| 20260904134516 | 78 | 135 | 2.0 | 6.0 | 0.00 | 0.01 | 0.00 | 94 | 1014.5 |
| 20260904133516 | 78 | 135 | 3.0 | 7.0 | 0.00 | 0.01 | 0.00 | 94 | 1014.4 |
| 20260904132516 | 78 | 135 | 3.0 | 8.0 | 0.00 | 0.01 | 0.00 | 94 | 1014.3 |
| 20260904131516 | 77 | 135 | 2.0 | 7.0 | 0.00 | 0.01 | 0.00 | 94 | 1014.2 |
| 20260904130516 | 77 | 90 | 3.0 | 6.0 | 0.00 | 0.01 | 0.00 | 94 | 1014.1 |
| 20260904125516 | 77 | 113 | 2.0 | 6.0 | 0.00 | 0.01 | 0.00 | 94 | 1014.0 |
| 20260904124516 | 77 | 0.0 | 3.0 | 0.00 | 0.01 | 0.00 | 94 | 1013.9 | |
| 20260904123516 | 77 | 135 | 2.0 | 5.0 | 0.00 | 0.01 | 0.00 | 94 | 1013.8 |
| 20260904122516 | 77 | 113 | 1.0 | 3.0 | 0.00 | 0.01 | 0.00 | 94 | 1013.8 |
| 20260904121516 | 77 | 0.0 | 3.0 | 0.00 | 0.01 | 0.00 | 94 | 1013.7 | |
| 20260904120516 | 77 | 135 | 2.0 | 7.0 | 0.00 | 0.01 | 0.00 | 94 | 1013.5 |
| 20260904115515 | 77 | 135 | 2.0 | 4.0 | 0.00 | 0.01 | 0.00 | 93 | 1013.4 |
| 20260904114536 | 77 | 135 | 3.0 | 5.0 | 0.00 | 0.01 | 0.00 | 93 | 1013.6 |
| 20260904113516 | 77 | 113 | 1.0 | 3.0 | 0.00 | 0.01 | 0.00 | 93 | 1013.5 |
| 20260904112516 | 77 | 113 | 1.0 | 3.0 | 0.00 | 0.01 | 0.00 | 93 | 1013.5 |
| 20260904111516 | 77 | 0.0 | 0.0 | 0.00 | 0.01 | 0.00 | 93 | 1013.4 | |
| 20260904110516 | 77 | 113 | 2.0 | 6.0 | 0.00 | 0.01 | 0.00 | 93 | 1013.2 |
| 20260904105516 | 77 | 135 | 3.0 | 8.0 | 0.00 | 0.01 | 0.00 | 93 | 1013.2 |
| 20260904104516 | 77 | 135 | 2.0 | 4.0 | 0.00 | 0.01 | 0.00 | 93 | 1013.3 |
| 20260904103535 | 77 | 135 | 1.0 | 3.0 | 0.00 | 0.01 | 0.00 | 93 | 1013.3 |
| 20260904102516 | 77 | 135 | 1.0 | 4.0 | 0.00 | 0.01 | 0.00 | 93 | 1013.2 |
| 20260904101515 | 77 | 135 | 1.0 | 4.0 | 0.00 | 0.01 | 0.00 | 93 | 1013.2 |
| 20260904100515 | 77 | 113 | 1.0 | 4.0 | 0.00 | 0.01 | 0.00 | 93 | 1013.1 |
| 20260904095535 | 77 | 90 | 1.0 | 4.0 | 0.00 | 0.01 | 0.00 | 92 | 1013.2 |
| 20260904094516 | 77 | 113 | 3.0 | 6.0 | 0.00 | 0.01 | 0.00 | 92 | 1013.0 |
| 20260904093535 | 77 | 158 | 2.0 | 4.0 | 0.00 | 0.01 | 0.00 | 92 | 1012.9 |
| 20260904092516 | 77 | 135 | 4.0 | 7.0 | 0.00 | 0.01 | 0.00 | 92 | 1012.9 |
| 20260904091516 | 77 | 135 | 4.0 | 9.0 | 0.00 | 0.01 | 0.00 | 92 | 1012.9 |
| 20260904090536 | 77 | 135 | 3.0 | 6.0 | 0.00 | 0.01 | 0.00 | 92 | 1013.0 |
| 20260904085537 | 77 | 135 | 4.0 | 9.0 | 0.00 | 0.01 | 0.01 | 92 | 1013.0 |
| 20260904084516 | 78 | 135 | 3.0 | 7.0 | 0.00 | 0.01 | 0.01 | 92 | 1012.9 |
| 20260904083537 | 77 | 135 | 4.0 | 11.0 | 0.00 | 0.01 | 0.01 | 92 | 1012.8 |
| 20260904082517 | 77 | 158 | 4.0 | 10.0 | 0.00 | 0.01 | 0.01 | 92 | 1012.7 |
| 20260904081517 | 77 | 135 | 5.0 | 11.0 | 0.00 | 0.01 | 0.01 | 92 | 1012.7 |
| 20260904080516 | 77 | 158 | 5.0 | 10.0 | 0.00 | 0.01 | 0.01 | 92 | 1012.8 |
| 20260904075516 | 77 | 135 | 7.0 | 11.0 | 0.00 | 0.01 | 0.01 | 92 | 1012.8 |
| 20260904074517 | 77 | 158 | 5.0 | 10.0 | 0.00 | 0.01 | 0.01 | 92 | 1013.0 |
| 20260904073516 | 77 | 135 | 5.0 | 10.0 | 0.00 | 0.01 | 0.01 | 92 | 1013.0 |
| 20260904072557 | 77 | 135 | 6.0 | 11.0 | 0.00 | 0.01 | 0.01 | 92 | 1013.1 |
| 20260904071517 | 77 | 135 | 6.0 | 11.0 | 0.00 | 0.01 | 0.01 | 91 | 1013.0 |
| 20260904070517 | 77 | 135 | 5.0 | 10.0 | 0.00 | 0.01 | 0.01 | 91 | 1012.9 |
| 20260904065517 | 77 | 135 | 5.0 | 9.0 | 0.00 | 0.01 | 0.01 | 91 | 1013.0 |
| 20260904064517 | 77 | 135 | 2.0 | 7.0 | 0.01 | 0.01 | 0.01 | 90 | 1013.2 |
| 20260904063536 | 77 | 158 | 1.0 | 6.0 | 0.01 | 0.01 | 0.01 | 90 | 1013.3 |
| 20260904062556 | 78 | 135 | 2.0 | 8.0 | 0.01 | 0.01 | 0.01 | 89 | 1013.2 |
| 20260904061517 | 78 | 113 | 3.0 | 7.0 | 0.01 | 0.01 | 0.01 | 88 | 1013.4 |
| 20260904060516 | 78 | 135 | 2.0 | 5.0 | 0.01 | 0.01 | 0.01 | 87 | 1013.6 |
| 20260904055516 | 79 | 135 | 1.0 | 7.0 | 0.01 | 0.01 | 0.01 | 85 | 1013.3 |
| 20260904054516 | 79 | 135 | 9.0 | 16.0 | 0.00 | 0.00 | 0.00 | 84 | 1013.0 |
| 20260904053517 | 79 | 135 | 2.0 | 8.0 | 0.00 | 0.00 | 0.00 | 83 | 1013.5 |
| 20260904052516 | 79 | 0.0 | 2.0 | 0.00 | 0.00 | 0.00 | 83 | 1013.7 | |
| 20260904051517 | 79 | 90 | 7.0 | 11.0 | 0.00 | 0.00 | 0.00 | 83 | 1013.3 |
| 20260904050517 | 79 | 113 | 5.0 | 12.0 | 0.00 | 0.00 | 0.00 | 82 | 1013.1 |
| 20260904045537 | 79 | 113 | 7.0 | 14.0 | 0.00 | 0.00 | 0.00 | 81 | 1013.0 |
| 20260904044516 | 79 | 113 | 9.0 | 14.0 | 0.00 | 0.00 | 0.00 | 80 | 1013.0 |
| 20260904043537 | 80 | 113 | 9.0 | 14.0 | 0.00 | 0.00 | 0.00 | 79 | 1013.0 |
| 20260904042516 | 80 | 113 | 8.0 | 15.0 | 0.00 | 0.00 | 0.00 | 79 | 1013.0 |
| 20260904041537 | 80 | 113 | 8.0 | 12.0 | 0.00 | 0.00 | 0.00 | 78 | 1013.0 |
| 20260904040516 | 80 | 113 | 8.0 | 13.0 | 0.00 | 0.00 | 0.00 | 77 | 1013.0 |
| 20260904035516 | 80 | 113 | 5.0 | 11.0 | 0.00 | 0.00 | 0.00 | 77 | 1013.2 |
| 20260904034516 | 80 | 113 | 8.0 | 11.0 | 0.00 | 0.00 | 0.00 | 76 | 1013.0 |
| 20260904033516 | 80 | 113 | 6.0 | 11.0 | 0.00 | 0.00 | 0.00 | 76 | 1013.0 |
| 20260904032536 | 80 | 113 | 9.0 | 12.0 | 0.00 | 0.00 | 0.00 | 75 | 1012.9 |
| 20260904031516 | 81 | 113 | 6.0 | 11.0 | 0.00 | 0.00 | 0.00 | 74 | 1012.7 |
| 20260904030516 | 81 | 113 | 8.0 | 14.0 | 0.00 | 0.00 | 0.00 | 74 | 1012.7 |
| 20260904025516 | 81 | 90 | 7.0 | 13.0 | 0.00 | 0.00 | 0.00 | 74 | 1012.6 |
| 20260904024517 | 81 | 113 | 9.0 | 14.0 | 0.00 | 0.00 | 0.00 | 73 | 1012.5 |
| 20260904023516 | 81 | 113 | 7.0 | 11.0 | 0.00 | 0.00 | 0.00 | 72 | 1012.4 |
| 20260904022516 | 82 | 113 | 6.0 | 12.0 | 0.00 | 0.00 | 0.00 | 71 | 1012.3 |
| 20260904021537 | 82 | 113 | 7.0 | 13.0 | 0.00 | 0.00 | 0.00 | 70 | 1012.1 |
| 20260904020516 | 82 | 113 | 9.0 | 13.0 | 0.00 | 0.00 | 0.00 | 70 | 1012.0 |
| 20260904015536 | 82 | 113 | 11.0 | 18.0 | 0.00 | 0.00 | 0.00 | 69 | 1011.7 |
| 20260904014517 | 83 | 113 | 9.0 | 14.0 | 0.00 | 0.00 | 0.00 | 69 | 1011.5 |
| 20260904013516 | 83 | 113 | 7.0 | 12.0 | 0.00 | 0.00 | 0.00 | 69 | 1011.5 |
| 20260904012556 | 83 | 113 | 8.0 | 13.0 | 0.00 | 0.00 | 0.00 | 67 | 1011.2 |
| 20260904011516 | 84 | 113 | 12.0 | 21.0 | 0.00 | 0.00 | 0.00 | 65 | 1011.1 |
| 20260904010516 | 85 | 113 | 10.0 | 17.0 | 0.00 | 0.00 | 0.00 | 63 | 1011.1 |
| 20260904005516 | 85 | 113 | 9.0 | 16.0 | 0.00 | 0.00 | 0.00 | 62 | 1011.0 |
| 20260904004536 | 86 | 113 | 11.0 | 17.0 | 0.00 | 0.00 | 0.00 | 62 | 1011.0 |
| 20260904003516 | 87 | 113 | 9.0 | 14.0 | 0.00 | 0.00 | 0.00 | 63 | 1010.9 |
| 20260904002516 | 87 | 113 | 11.0 | 17.0 | 0.00 | 0.00 | 0.00 | 62 | 1011.1 |
| 20260904001557 | 87 | 113 | 12.0 | 17.0 | 0.00 | 0.00 | 0.00 | 62 | 1011.0 |
| 20260904000516 | 88 | 113 | 13.0 | 18.0 | 0.00 | 0.00 | 0.00 | 63 | 1010.9 |
| 20260903235516 | 89 | 113 | 13.0 | 20.0 | 0.00 | 0.00 | 0.00 | 63 | 1010.9 |